Louisville, KY

7:03 AM EST on February 10, 2016 (GMT -0500)
Bowman

Weather History for KLOU - November, 2012

Change the Weather History Date:

Thursday, November 8, 2012

  Actual Average Record
Temperature  
Mean Temperature 42 °F 51 °F  
Max Temperature 54 °F 60 °F - ()
Min Temperature 30 °F 41 °F - ()
Degree Days  
Heating Degree Days 23 14  
Month to date heating degree days 173 105  
Since 1 July heating degree days 490 381  
Cooling Degree Days 0 0  
Month to date cooling degree days 0 0  
Year to date cooling degree days 1851 1442  
Moisture  
Dew Point 34 °F    
Average Humidity 73    
Maximum Humidity 100    
Minimum Humidity 46    
Precipitation  
Precipitation 0.00 in 0.09 in - ()
Month to date precipitation 0.27 1.00  
Year to date precipitation 37.93 38.92  
Sea Level Pressure  
Sea Level Pressure 30.22 in    
Wind  
Wind Speed 0 mph (NW)    
Max Wind Speed 7 mph    
Max Gust Speed 9 mph    
Visibility 6 miles    
Events      
T = Trace of Precipitation, MM = Missing Value Source: NWS Daily Summary

Daily Weather History Graph

Daily Weather History Graph

Search for Another Location

Airport or City:

Trip Planner

Search our weather history database for the weather conditions in past years. The results will help you decide how hot, cold, wet, or windy it might be!

Date:

Astronomy

Nov. 08, 2012 Rise Set
Actual Time 7:16 AM EST 5:35 PM EST
Civil Twilight 6:48 AM EST 6:03 PM EST
Nautical Twilight 6:17 AM EST 6:34 PM EST
Astronomical Twilight 5:46 AM EST 7:05 PM EST
Moon 1:16 AM EST (11/8) 2:11 PM EST (11/8)
Length of Visible Light 11h 14m
Length of Day
10h 18m
Waning Crescent, 33% of the Moon is Illuminated
Nov 8
Waning Crescent
Nov 13
New
Nov 20
First Quarter
Nov 28
Full
Dec 6
Last Quarter

Hourly Weather History & Observations

Time (EST) Temp. Windchill Dew Point Humidity Pressure Visibility Wind Dir Wind Speed Gust Speed Precip Events Conditions
12:53 AM 36.0 °F - 34.0 °F 93% 30.16 in 3.0 mi Calm Calm - N/A   Clear
1:53 AM 33.1 °F - 33.1 °F 100% 30.17 in 5.0 mi Calm Calm - N/A   Clear
2:05 AM 33.8 °F - 32.0 °F 93% 30.16 in 1.8 mi Calm Calm - N/A   Clear
2:17 AM 33.8 °F - 32.0 °F 93% 30.16 in 3.0 mi Calm Calm - N/A   Clear
2:53 AM 33.1 °F - 32.0 °F 96% 30.18 in 5.0 mi Calm Calm - N/A   Clear
3:53 AM 33.1 °F 30.0 °F 30.9 °F 92% 30.19 in 4.0 mi NW 3.5 mph - N/A   Clear
4:53 AM 32.0 °F - 30.0 °F 92% 30.20 in 5.0 mi Calm Calm - N/A   Clear
5:53 AM 32.0 °F - 30.0 °F 92% 30.22 in 5.0 mi Calm Calm - N/A   Clear
6:18 AM 30.2 °F - 28.4 °F 93% 30.21 in 0.8 mi Calm Calm - N/A   Clear
6:27 AM 30.2 °F - 30.2 °F 100% 30.22 in 2.0 mi Calm Calm - N/A   Clear
6:34 AM 30.2 °F - 30.2 °F 100% 30.22 in 4.0 mi Calm Calm - N/A   Clear
6:53 AM 30.9 °F - 30.0 °F 96% 30.24 in 3.0 mi Calm Calm - N/A   Partly Cloudy
7:02 AM 30.2 °F - 30.2 °F 100% 30.23 in 2.0 mi Calm Calm - N/A   Partly Cloudy
7:53 AM 33.1 °F - 32.0 °F 96% 30.25 in 2.0 mi Calm Calm - N/A   Clear
7:55 AM 33.8 °F - 32.0 °F 93% 30.24 in 2.0 mi Calm Calm - N/A   Partly Cloudy
8:28 AM 33.8 °F - 33.8 °F 100% 30.25 in 1.0 mi Calm Calm - N/A   Mist
8:53 AM 37.0 °F - 35.1 °F 93% 30.27 in 2.0 mi Calm Calm - N/A   Clear
9:22 AM 39.2 °F - 37.4 °F 93% 30.27 in 3.0 mi Calm Calm - N/A   Clear
9:53 AM 42.1 °F - 37.9 °F 85% 30.28 in 3.0 mi Calm Calm - N/A   Clear
10:53 AM 46.9 °F - 37.0 °F 68% 30.28 in 6.0 mi Calm Calm - N/A   Haze
11:53 AM 48.9 °F - 36.0 °F 61% 30.27 in 9.0 mi Calm Calm - N/A   Clear
12:53 PM 52.0 °F - 35.1 °F 53% 30.25 in 10.0 mi Calm Calm - N/A   Clear
1:53 PM 53.1 °F - 35.1 °F 50% 30.23 in 9.0 mi NE 3.5 mph - N/A   Clear
2:53 PM 53.1 °F - 35.1 °F 50% 30.21 in 10.0 mi SW 3.5 mph - N/A   Clear
3:53 PM 53.1 °F - 34.0 °F 48% 30.20 in 10.0 mi Calm Calm - N/A   Clear
4:53 PM 53.1 °F - 34.0 °F 48% 30.20 in 10.0 mi Calm Calm - N/A   Clear
5:53 PM 50.0 °F - 35.1 °F 57% 30.20 in 10.0 mi Calm Calm - N/A   Clear
6:53 PM 46.0 °F - 36.0 °F 68% 30.21 in 10.0 mi Calm Calm - N/A   Clear
7:53 PM 44.1 °F - 35.1 °F 71% 30.21 in 10.0 mi Calm Calm - N/A   Clear
8:53 PM 42.1 °F - 36.0 °F 79% 30.21 in 9.0 mi Calm Calm - N/A   Clear
9:53 PM 41.0 °F - 36.0 °F 82% 30.21 in 8.0 mi Calm Calm - N/A   Clear
10:53 PM 39.0 °F - 35.1 °F 86% 30.20 in 7.0 mi Calm Calm - N/A   Clear
11:53 PM 37.9 °F - 35.1 °F 89% 30.20 in 6.0 mi Calm Calm - N/A   Clear